SES-2

Last updated on Wed Sep 09 2026 00:02:59 GMT+0000 (Coordinated Universal Time)

1 37809U 11049A 26251.47475012 -.00000217 00000+0 00000+0 0 9997 2 37809 0.2659 87.8643 0002820 85.1440 258.4367 1.00270336 54793
UTC large
Height (km)
Speed (km/s)
/
Latitude / Longitude
Inclination (degrees)
Orbital Period (minutes)
Azimuth
Elevation
Range (km)
Doppler Factor

Next 0 passes for location: London (51.5072 / 0.1276)

No passes found over London.
SES-2